Location: Pointed Rock Observatory
(32.4532°N, 111.0636°W)
Time: 13:02:08
(UTC-07:00)

Envisat - Visible Passes

Search period start: 16 November 2018 00:00
Search period end: 26 November 2018 00:00
Orbit: 764 x 766 km, 98.2° (Epoch: 16 November)

Date Brightness Start Highest point End Pass type
(mag) Time Alt. Az. Time Alt. Az. Time Alt. Az.
16 Nov 3.1 19:31:52 10° S 19:37:20 72° NW 19:42:01 10° NNW visible
17 Nov 3.2 18:55:31 10° SE 19:00:21 43° ENE 19:05:05 10° N visible
17 Nov 5.6 20:36:16 10° SW 20:40:34 16° WNW 20:42:39 10° NW visible
18 Nov 4.2 18:23:22 19° ENE 18:23:51 19° ENE 18:27:18 10° NNE visible
18 Nov 4.3 19:57:46 10° SSW 20:03:34 36° WNW 20:07:17 10° NNW visible
19 Nov 3.1 19:20:41 10° SSE 19:26:35 63° N 19:30:51 10° N visible
20 Nov 3.6 18:44:39 10° SE 18:49:33 33° ENE 18:53:42 10° N visible
20 Nov 5.4 20:24:20 10° SW 20:29:46 19° WNW 20:32:03 10° NW visible
21 Nov 4.5 18:12:32 15° ENE 18:12:47 15° ENE 18:15:30 10° NNE visible
21 Nov 4.0 19:46:22 10° S 19:52:44 40° NW 19:56:15 10° NNW visible
22 Nov 3.3 19:09:35 10° SSE 19:15:42 49° NNE 19:19:36 10° N visible
22 Nov6.120:55:54WNW20:55:54WNW20:51:36WSWvisible
23 Nov 3.9 18:33:53 10° SE 18:38:37 26° ENE 18:42:14 10° NNE visible
23 Nov 5.1 20:12:37 10° SSW 20:18:50 22° WNW 20:21:16 10° NW visible
24 Nov 4.7 18:01:32 11° ENE 18:01:44 11° ENE 18:03:09 10° NE visible
24 Nov 3.8 19:35:03 10° S 19:41:45 42° NNW 19:45:10 10° NNW visible
25 Nov 3.5 18:58:35 10° SSE 19:04:39 40° NE 19:08:19 10° N visible
25 Nov 5.8 20:39:49 10° SW 20:44:52 12° WNW 20:45:29 10° WNW visible
